Simultaneous Nadir Overpasses (SNOs) Predictions

Prediction of SNOs between AQUA and GOES-15 Satellite Orbit:

Table of predicted SNOs for the next 14.0 days since TLE Epoch: 2/20/2015
Index Date Time (AQUA) AQUA Lat,Lon GOES-15 Lat,Lon Distance(km) Time Diff (sec)
1 02/21/2015 22:35:47 0.14,-134.91 0.05,-135.38 53.93 80
2 02/23/2015 22:23:33 0.76,-131.94 0.05,-135.39 392.49 80
3 02/24/2015 10:44:48 0.33,-137.09 -0.04,-135.40 192.68 80
4 02/26/2015 10:32:34 -0.33,-134.12 -0.04,-135.40 145.38 80
5 02/26/2015 22:53:56 -0.80,-139.30 0.03,-135.39 445.31 80
6 02/28/2015 10:20:19 -0.94,-131.14 -0.03,-135.39 483.24 80
7 02/28/2015 22:41:41 -0.18,-136.33 0.03,-135.38 107.35 80
8 03/02/2015 22:29:27 0.47,-133.35 0.02,-135.38 230.41 80
9 03/03/2015 10:50:40 0.66,-138.50 -0.02,-135.39 354.03 80
10 03/05/2015 10:38:24 0.04,-135.51 -0.02,-135.37 17.00 80




NCC Satellite Simultaneous Nadir Overpasses (SNOs) Prediction Service
